Regional Weather Roundup
Issued by NWS Boston, MA

Home | Current Version | Previous Version | Text Only | Print | Product List | Glossary On
Versions: 1 2 3 4 5 6 7 8 9 10 11 12 13 14 15 16 17 18 19 20 21 22 23 24 25 26 27
000
ASUS41 KBOX 301310
RWRBOX

REGIONAL WEATHER ROUNDUP
NATIONAL WEATHER SERVICE TAUNTON MA
900 AM EDT SAT APR 30 2016

NOTE:  "FAIR" INDICATES FEW OR NO CLOUDS BELOW 12,000 FEET WITH NO
SIGNIFICANT WEATHER AND/OR OBSTRUCTIONS TO VISIBILITY.  THE FOLLOWING
OBSERVATION LOCATIONS DO NOT REPORT PRESENT WEATHER...PROVINCETOWN...
SMITHFIELD...BLOCK ISLAND...KEENE...AND OXFORD.

MAZALL-301400-
EASTERN MASSACHUSETTS

CITY           SKY/WX    TMP DP  RH WIND       PRES   REMARKS
BOSTON         SUNNY     52  30  43 SW6       30.24S
BEVERLY        SUNNY     52  30  43 W9        30.22S
LAWRENCE       SUNNY     51  35  54 W6        30.24S
BEDFORD        SUNNY     51  36  56 W7        30.22S
BLUE HILL        N/A     48  29  47 W6        30.21S
NORWOOD        SUNNY     52  31  44 W5        30.23F
MARSHFIELD     SUNNY     50  34  53 NW5       30.25S
PLYMOUTH       SUNNY     50  35  56 NW7       30.24R
TAUNTON        MOSUNNY   52  34  50 W5        30.23S
NEW BEDFORD    CLOUDY    50  33  52 CALM      30.23R
$$

MAZALL-301400-
CAPE COD AND THE ISLANDS

CITY           SKY/WX    TMP DP  RH WIND       PRES   REMARKS
FALMOUTH       SUNNY     50  28  43 VRB3      30.24R
HYANNIS        SUNNY     51  28  41 N5        30.22R
CHATHAM        SUNNY     48  34  58 NE6       30.25R
PROVINCETOWN   SUNNY     47  35  63 VRB5      30.25R
NANTUCKET      SUNNY     50  34  54 NE7       30.23R
MARTHAS VNYRD  CLOUDY    49  33  54 E6        30.24R
$$

MAZALL-301400-
CENTRAL AND WESTERN MASSACHUSETTS

CITY           SKY/WX    TMP DP  RH WIND       PRES   REMARKS
WORCESTER      CLOUDY    46  35  65 W7        30.21S
FITCHBURG      CLOUDY    49  35  58 CALM      30.23S
ORANGE         CLOUDY    47  35  63 CALM      30.23R
SPRINGFIELD    MOSUNNY   49  39  67 VRB3      30.20F
WESTFIELD      MOSUNNY   53  39  59 N7        30.20F
NORTH ADAMS    CLOUDY    49  38  65 CALM      30.22S
PITTSFIELD     CLOUDY    47  38  71 CALM      30.19F
$$

RIZALL-301400-
RHODE ISLAND

CITY           SKY/WX    TMP DP  RH WIND       PRES   REMARKS
PROVIDENCE     MOSUNNY   53  30  41 VRB6      30.23F
NEWPORT        CLOUDY    50  36  58 N6        30.22S
BLOCK ISLAND   SUNNY     48  37  65 NE10      30.22F
SMITHFIELD       N/A     52  28  40 CALM      30.22S
WESTERLY       PTSUNNY   51  34  52 N6        30.22F
$$

CTZALL-301400-
CONNECTICUT

CITY           SKY/WX    TMP DP  RH WIND       PRES   REMARKS
BRADLEY INTL   MOSUNNY   53  39  59 NE8       30.19F
HARTFORD       SUNNY     52  41  66 NE5       30.21F
BRIDGEPORT     SUNNY     52  42  69 NE3       30.21F
DANBURY        MOSUNNY   50  41  71 CALM      30.22S
GROTON         CLOUDY    50  41  71 N8        30.21F
NEW HAVEN      MOSUNNY   51  43  74 CALM      30.21F
CHESTER        FAIR      52  39  62 NE6       30.19F
MERIDEN        SUNNY     52  41  66 CALM      30.20F
WILLIMANTIC    CLOUDY    52  37  56 NE3       30.22F
OXFORD         MOSUNNY   48  25  40 N6        30.21F
$$

MEZ002-015-021-024-NHZ003-005-008-011-012-014-VTZ005-008-301400-
NORTHERN NEW ENGLAND

CITY           SKY/WX    TMP DP  RH WIND       PRES   REMARKS
PORTLAND ME    SUNNY     48  37  65 CALM      30.23F
BANGOR ME      MOSUNNY   49  21  33 NE5       30.25S
CONCORD NH     SUNNY     47  32  56 CALM      30.23R
MANCHESTER NH  MOSUNNY   48  33  56 CALM      30.21S
NASHUA NH      SUNNY     49  35  58 CALM      30.23S
PORTSMOUTH NH  SUNNY     49  35  59 CALM      30.22S
JAFFREY NH     CLOUDY    45  32  60 CALM      30.22R
KEENE NH       CLOUDY    50  34  53 CALM      30.23R
BURLINGTON VT  FAIR      46  25  43 NW6       30.26R
MT. WASHINGTON MOSUNNY   27  18  69 W23         N/A  WCI  12
$$

NYZ052-076-301400-
EASTERN NEW YORK

CITY           SKY/WX    TMP DP  RH WIND       PRES   REMARKS
ALBANY         PTSUNNY   50  24  36 NE9       30.23F
NEW YORK CITY  CLOUDY    50  39  66 NE3       30.22R
$$

ANZALL-301400-
MARINE OBSERVATIONS

STATION/POSITION TIME  TEMP    WIND        PRES    VSBY  WAVE
                       AIR SEA DIR/SP/G                  HT/PER
                 (UTC) (F)     (DEG/KT/KT) (MB)    (MI)  (FT/S)
BOSTON BUOY      1250   46 46  200/  4/  4 1023.2R         1/10
BUZZARDS BAY     1200   45     350/  5/  6 1024.1R
NANTUCKET SOUND  1250   46 48   50/  8/  8 1024.0R         1/ 6
MASS BAY-STELLWA 1204   45 45                N/A    1 7/8  2/ 5
ISLE OF SHOALS   1200   44     240/  7/  8 1023.0R
S OF BLOCK IS    NOT AVBL
$$

......................KEY.........................
  SKY/WX - SKY CONDITION/PRESENT WEATHER
  TMP    - TEMPERATURE IN FAHRENHEIT
  DWPT   - DEWPOINT IN FAHRENHEIT
  RH     - RELATIVE HUMIDITY IN PERCENT
  WIND   - DIRECTION AND SPEED IN MPH
  PRES   - MEAN SEA LEVEL PRESSURE IN INCHES OF HG
  WCI    - WIND CHILL INDEX
  VSB    - VISIBILITY IN MILES
  HX     - HEAT INDEX
  TC     - TEMPERATURE IN CELSIUS
  VRB    - VARIABLE WIND DIRECTION
  N/A    - NOT AVAILABLE




USA.gov is the U.S. government's official web portal to all federal, state and local government web resources and services.